GW3591 Weather Reports


time (UTC)temp
C
wind
direction
speed
KPH
gust
KPH
rain 1hr
cm
rain 24hr
cm
rain mn
cm
humidity
%
barometer
mb
20260505041654 15 242 0.0 0.0 0.00 0.00 0.00 65 1012.4
20260505041152 15 242 0.0 0.0 0.00 0.00 0.00 64 1012.3
20260505040649 16 242 0.0 0.0 0.00 0.00 0.00 63 1012.2
20260505040146 16 16 0.0 0.0 0.00 0.00 0.00 62 1012.5
20260505035642 16 263 0.0 1.6 0.00 0.00 0.00 62 1012.4
20260505035138 16 317 0.0 0.0 0.00 0.00 0.00 62 1012.4
20260505034635 16 63 0.0 0.0 0.00 0.00 0.00 62 1012.3
20260505034132 16 150 1.6 1.6 0.00 0.00 0.00 61 1012.3
20260505033628 16 104 0.0 0.0 0.00 0.00 0.00 62 1012.4
20260505033127 16 232 0.0 0.0 0.00 0.00 0.00 62 1012.5
20260505032625 16 309 0.0 0.0 0.00 0.00 0.00 62 1012.4
20260505032121 16 140 0.0 0.0 0.00 0.00 0.00 64 1012.4
20260505031618 16 87 0.0 0.0 0.00 0.00 0.00 61 1012.1
20260505031114 16 8 0.0 0.0 0.00 0.00 0.00 62 1012.4
20260505030611 16 8 0.0 0.0 0.00 0.00 0.00 61 1012.4
20260505030107 16 147 0.0 0.0 0.00 0.00 0.00 61 1012.4
20260505025602 16 117 0.0 0.0 0.00 0.00 0.00 61 1012.4
20260505025057 17 329 0.0 0.0 0.00 0.00 0.00 59 1012.5
20260505024553 17 329 0.0 0.0 0.00 0.00 0.00 60 1012.4
20260505024051 17 292 0.0 0.0 0.00 0.00 0.00 58 1012.4
20260505023548 17 220 0.0 0.0 0.00 0.00 0.00 60 1012.3
20260505023045 16 258 0.0 1.6 0.00 0.00 0.00 61 1012.3
20260505022543 16 19 0.0 0.0 0.00 0.00 0.00 63 1012.1
20260505022040 16 47 0.0 0.0 0.00 0.00 0.00 62 1012.3
20260505021536 16 32 0.0 0.0 0.00 0.00 0.00 64 1012.4
20260505021033 16 4 0.0 0.0 0.00 0.00 0.00 63 1012.5
20260505020532 16 3 0.0 0.0 0.00 0.00 0.00 63 1012.3
20260505020030 17 75 0.0 0.0 0.00 0.00 0.00 62 1012.3
20260505015527 16 47 0.0 0.0 0.00 0.00 0.00 62 1012.4
20260505015024 17 319 0.0 0.0 0.00 0.00 0.00 63 1012.2
20260505014520 17 48 0.0 0.0 0.00 0.00 0.00 61 1012.2
20260505014018 17 32 0.0 0.0 0.00 0.00 0.00 63 1012.1
20260505013515 17 28 0.0 0.0 0.00 0.00 0.00 62 1012.1
20260505013012 17 2 0.0 0.0 0.00 0.00 0.00 61 1012.2
20260505012510 17 357 0.0 0.0 0.00 0.00 0.00 63 1011.9
20260505012007 17 129 0.0 0.0 0.00 0.00 0.00 59 1011.9
20260505011503 17 146 0.0 0.0 0.00 0.00 0.00 59 1012.1
20260505011000 17 129 0.0 0.0 0.00 0.00 0.00 59 1012.0
20260505010455 18 119 0.0 0.0 0.00 0.00 0.00 58 1011.9
20260505005951 18 67 0.0 0.0 0.00 0.00 0.00 57 1011.9
20260505005448 18 94 0.0 0.0 0.00 0.00 0.00 55 1011.9
20260505004946 18 41 0.0 0.0 0.00 0.00 0.00 54 1011.8
20260505004443 19 142 1.6 1.6 0.00 0.00 0.00 54 1011.8
20260505003939 18 65 0.0 0.0 0.00 0.00 0.00 53 1011.9
20260505003437 19 93 1.6 3.2 0.00 0.00 0.00 53 1011.8
20260505002933 19 72 0.0 0.0 0.00 0.00 0.00 52 1011.8
20260505002429 19 295 0.0 0.0 0.00 0.00 0.00 52 1011.9
20260505001928 19 67 0.0 0.0 0.00 0.00 0.00 50 1011.8
20260505001425 20 161 0.0 0.0 0.00 0.00 0.00 50 1011.8
20260505000922 20 61 0.0 0.0 0.00 0.00 0.00 49 1011.6
20260505000420 20 168 0.0 0.0 0.00 0.00 0.00 48 1011.7
20260504235916 20 172 1.6 1.6 0.00 0.00 0.00 48 1011.5
20260504235414 20 269 0.0 0.0 0.00 0.00 0.00 47 1011.7
20260504234910 20 84 0.0 0.0 0.00 0.00 0.00 47 1011.6
20260504234407 20 266 0.0 0.0 0.00 0.00 0.00 47 1011.6
20260504233904 21 166 1.6 3.2 0.00 0.00 0.00 46 1011.6
20260504233359 21 142 0.0 1.6 0.00 0.00 0.00 45 1011.7
20260504232856 21 173 0.0 1.6 0.00 0.00 0.00 46 1011.6
20260504232353 21 129 0.0 1.6 0.00 0.00 0.00 46 1011.8
20260504231850 21 214 1.6 1.6 0.00 0.00 0.00 45 1011.6
20260504231347 22 41 0.0 1.6 0.00 0.00 0.00 45 1011.6
20260504230843 22 143 1.6 1.6 0.00 0.00 0.00 44 1011.9
20260504230341 21 85 0.0 1.6 0.00 0.00 0.00 44 1011.7
20260504225839 22 59 4.8 6.4 0.00 0.00 0.00 44 1011.7
20260504225335 22 171 3.2 3.2 0.00 0.00 0.00 43 1011.6
20260504224833 22 338 0.0 1.6 0.00 0.00 0.00 41 1011.6
20260504224330 22 54 0.0 1.6 0.00 0.00 0.00 42 1011.6
20260504223826 22 355 0.0 0.0 0.00 0.00 0.00 42 1011.5
20260504223322 23 75 3.2 6.4 0.00 0.00 0.00 41 1011.5
20260504222819 23 284 1.6 1.6 0.00 0.00 0.00 40 1011.3
20260504222316 23 168 0.0 1.6 0.00 0.00 0.00 39 1011.5
20260504221814 23 4 0.0 1.6 0.00 0.00 0.00 39 1011.4
20260504221310 23 5 0.0 0.0 0.00 0.00 0.00 38 1011.4
20260504220807 24 47 0.0 1.6 0.00 0.00 0.00 38 1011.5
20260504220304 25 65 3.2 3.2 0.00 0.00 0.00 37 1011.5
20260504215802 25 351 3.2 4.8 0.00 0.00 0.00 34 1011.2
20260504215258 25 328 1.6 1.6 0.00 0.00 0.00 34 1011.2
20260504214753 25 202 1.6 3.2 0.00 0.00 0.00 34 1011.4
20260504214244 25 121 3.2 4.8 0.00 0.00 0.00 34 1011.3
20260504213741 25 260 3.2 3.2 0.00 0.00 0.00 34 1011.3
20260504213237 25 310 1.6 1.6 0.00 0.00 0.00 34 1011.4
20260504212734 25 141 6.4 6.4 0.00 0.00 0.00 34 1011.5
20260504212225 25 227 1.6 1.6 0.00 0.00 0.00 34 1011.5
20260504211722 25 16 1.6 3.2 0.00 0.00 0.00 35 1011.3
20260504211213 26 188 1.6 3.2 0.00 0.00 0.00 33 1011.5
20260504210711 26 291 4.8 6.4 0.00 0.00 0.00 33 1011.3
20260504210207 26 130 3.2 4.8 0.00 0.00 0.00 32 1011.5
20260504205705 26 81 1.6 3.2 0.00 0.00 0.00 33 1011.3
20260504205202 25 147 3.2 4.8 0.00 0.00 0.00 34 1011.7
20260504204701 25 315 1.6 1.6 0.00 0.00 0.00 34 1011.6
20260504204159 26 216 1.6 3.2 0.00 0.00 0.00 34 1011.8
20260504203657 25 11 1.6 3.2 0.00 0.00 0.00 33 1011.7
20260504203154 26 261 1.6 3.2 0.00 0.00 0.00 34 1011.5
20260504202649 26 12 3.2 3.2 0.00 0.00 0.00 33 1011.8
20260504202146 26 215 3.2 3.2 0.00 0.00 0.00 32 1011.8
20260504201643 26 309 0.0 0.0 0.00 0.00 0.00 33 1011.7
20260504201141 26 25 3.2 3.2 0.00 0.00 0.00 34 1011.8
20260504200638 26 72 1.6 1.6 0.00 0.00 0.00 33 1012.0
20260504200134 25 121 1.6 3.2 0.00 0.00 0.00 33 1011.9
20260504195630 25 289 3.2 3.2 0.00 0.00 0.00 34 1012.2
20260504195127 25 184 1.6 3.2 0.00 0.00 0.00 35 1012.1
20260504194624 25 192 3.2 4.8 0.00 0.00 0.00 34 1012.1
20260504194120 25 5 1.6 1.6 0.00 0.00 0.00 34 1012.4
20260504193616 26 5 0.0 1.6 0.00 0.00 0.00 32 1012.5
20260504193114 25 41 0.0 1.6 0.00 0.00 0.00 34 1012.6
20260504192612 25 218 3.2 3.2 0.00 0.00 0.00 34 1012.6
20260504192110 25 331 1.6 3.2 0.00 0.00 0.00 33 1012.9
20260504191608 26 59 0.0 1.6 0.00 0.00 0.00 31 1012.9
20260504191104 25 357 3.2 6.4 0.00 0.00 0.00 34 1012.8
20260504190600 25 182 0.0 0.0 0.00 0.00 0.00 34 1012.9
20260504190056 25 196 6.4 6.4 0.00 0.00 0.00 34 1013.0
20260504185553 24 131 1.6 1.6 0.00 0.00 0.00 32 1012.9
20260504185050 25 331 3.2 4.8 0.00 0.00 0.00 33 1013.2
20260504184545 25 161 1.6 3.2 0.00 0.00 0.00 33 1013.4
20260504184041 25 330 6.4 6.4 0.00 0.00 0.00 32 1013.4
20260504183538 25 326 3.2 4.8 0.00 0.00 0.00 31 1013.5
20260504183036 25 69 1.6 1.6 0.00 0.00 0.00 33 1013.5
20260504182533 25 279 0.0 1.6 0.00 0.00 0.00 33 1013.4
20260504182031 25 224 3.2 3.2 0.00 0.00 0.00 33 1013.5
20260504181527 23 79 1.6 3.2 0.00 0.00 0.00 33 1013.4
20260504181026 25 311 4.8 6.4 0.00 0.00 0.00 34 1013.7
20260504180524 24 258 3.2 4.8 0.00 0.00 0.00 34 1013.6
20260504180023 23 349 0.0 1.6 0.00 0.00 0.00 34 1013.7
20260504175519 25 129 1.6 1.6 0.00 0.00 0.00 33 1013.8
20260504175016 24 39 1.6 3.2 0.00 0.00 0.00 33 1014.0
20260504174514 24 40 1.6 3.2 0.00 0.00 0.00 33 1014.0
20260504174011 24 324 0.0 0.0 0.00 0.00 0.00 33 1014.1
20260504173508 23 241 1.6 3.2 0.00 0.00 0.00 34 1014.2
20260504173005 24 141 3.2 4.8 0.00 0.00 0.00 33 1014.2
20260504172501 23 247 1.6 3.2 0.00 0.00 0.00 34 1014.3
20260504171957 23 159 3.2 4.8 0.00 0.00 0.00 34 1014.2
20260504171455 23 76 0.0 1.6 0.00 0.00 0.00 33 1014.2
20260504170951 22 13 4.8 6.4 0.00 0.00 0.00 34 1014.3
20260504170447 23 3 1.6 1.6 0.00 0.00 0.00 34 1014.4
20260504160408 22 289 3.2 4.8 0.00 0.00 0.00 34 1015.1
20260504150832 21 72 0.0 1.6 0.00 0.00 0.00 36 1015.9
20260504150328 20 140 1.6 1.6 0.00 0.00 0.00 37 1015.6
20260504141258 18 270 0.0 1.6 0.00 0.00 0.00 43 1015.9
20260504140755 19 244 0.0 1.6 0.00 0.00 0.00 44 1016.2
20260504140250 18 299 0.0 1.6 0.00 0.00 0.00 43 1016.0
20260504130719 15 96 0.0 0.0 0.00 0.00 0.00 52 1016.4
20260504130214 15 343 1.6 3.2 0.00 0.00 0.00 54 1016.4
20260504120139 11 264 3.2 3.2 0.00 0.00 0.00 66 1017.0
20260504110606 8 36 0.0 0.0 0.00 0.00 0.00 73 1016.7
20260504100528 8 320 0.0 0.0 0.00 0.00 0.00 79 1016.7
20260504081921 7 15 0.0 0.0 0.00 0.00 0.00 83 1017.2
20260504081418 6 15 0.0 0.0 0.00 0.00 0.00 83 1017.2
20260504080914 6 15 0.0 0.0 0.00 0.00 0.00 84 1017.2
20260504080411 6 15 0.0 0.0 0.00 0.00 0.00 84 1017.1
20260504070338 6 25 0.0 0.0 0.00 0.00 0.00 84 1017.4
20260504060247 5 345 0.0 0.0 0.00 0.00 0.00 87 1017.4
20260504050710 5 351 0.0 0.0 0.00 0.00 0.00 85 1017.6
20260504050206 5 351 0.0 0.0 0.00 0.00 0.00 85 1017.5
20260504045703 5 357 0.0 0.0 0.00 0.00 0.00 85 1017.4
20260504045157 5 357 0.0 0.0 0.00 0.00 0.00 85 1017.5
20260504044656 5 359 0.0 0.0 0.00 0.00 0.00 84 1017.5
20260504044153 5 0 0.0 0.0 0.00 0.00 0.00 83 1017.5
20260504043649 5 0 0.0 0.0 0.00 0.00 0.00 83 1017.6
20260504043147 5 359 0.0 0.0 0.00 0.00 0.00 83 1017.4
20260504042644 5 348 0.0 0.0 0.00 0.00 0.00 83 1017.6
20260504042141 6 9 0.0 0.0 0.00 0.00 0.00 83 1017.5